Tracking 35274 objects as of 10-Sep-2026
HD Live streaming from Space Station
objects crossing your sky now

SL-4 DEB


SL-4 DEB is no longer on orbit


NORAD ID: 10328
Int'l Code: 1977-085C
Launch date: September 6, 1977
Source: Commonwealth of Independent States (former USSR) (CIS)
Launch site: PLESETSK MISSILE AND SPACE COMPLEX (PKMTR)
Decay date: 1977-09-10

Note: This is SATELLITE DEBRIS
Your satellite tracking list
Your tracking list is empty




NASA's NSSDC Master Catalog

Two Line Element Set (TLE):
1 10328U 77085  C 77252.87614436  .00149894 +00000-0 +00000-0 0  9998
2 10328 062.8022 185.7554 0087614 066.5828 294.4460 16.15120888000517
Source of the keplerian elements: AFSPC